sat.trackr.live / text

‹ back to catalog

OTTER PUP 2

NORAD 64537 · 2025-135K

PAYLOAD ACTIVE UNKNOWN

§ Identity

Operator
Country
US
Launch date
2025-06-23
Launch site
AFWTR
Launch vehicle
Mass (kg)
RCS (m²)

External: N2YO · Heavens-Above · Gunter

§ Orbital elements

Epoch: 2026-05-25T00:58:10.806240Z

Period
94.57 min
Inclination
97.4679°
Eccentricity
0.0001144
Mean motion
15.22685702 rev/d
Perigee alt
497.0 km
Apogee alt
498.5 km
Semi-major
6,875.9 km
B*
8.1332e-4
RAAN
260.6904°
Arg perigee
212.7735°
Mean anomaly
147.3430°
Rev number
5,135

§ Raw data

OTTER PUP 21 64537U 25135K   26145.04040285  .00018910  00000+0  81332-3 0  99902 64537  97.4679 260.6904 0001144 212.7735 147.3430 15.22685702 51357

JSON: /api/v1/satellites/64537 · /tle

For live sub-satellite position, see the globe view (requires WebGL).

§ Visibility from observer

Set your observer location to see the next 7 days of passes ≥ 10°. The values pass through the URL so the page stays shareable.

No JS? Fill the form by hand. The geolocation button needs JavaScript.

§ Radio — SatNOGS DB

ModeDescriptionDownlinkUplink
GFSK Mode U - GFSK38k4 400.500 MHz

1 transmitter · refreshed weekly from db.satnogs.org